Regional Weather Roundup
Issued by NWS Sioux Falls, SD

Home | Current Version | Previous Version | Text Only | Print | Product List | Glossary On
Versions: 1 2 3 4 5 6 7 8 9 10 11 12 13 14 15 16 17 18 19 20 21 22 23 24 25 26 27 28 29 30 31 32 33 34 35 36 37 38 39 40 41 42 43 44 45 46 47 48 49 50
000
ASUS43 KFSD 240110
RWRFSD

WEATHER ROUNDUP FOR SE SOUTH DAKOTA/SW MINNESOTA/NW IOWA
NATIONAL WEATHER SERVICE SIOUX FALLS SD
800 PM CDT TUE MAY 23 2017

NOTE: "FAIR" INDICATES FEW OR NO CLOUDS BELOW 12,000 FEET WITH NO
SIGNIFICANT WEATHER AND OR OBSTRUCTIONS TO VISIBILITY.


SDZ038>040-050-052>070-240200-
SOUTHEAST SOUTH DAKOTA

CITY           SKY/WX    TMP DP  RH WIND       PRES   REMARKS
BROOKINGS      CLOUDY    52  46  80 N15       29.89R
CHAMBERLAIN    CLOUDY    55  44  65 N8        29.97S
HURON          CLOUDY    52  45  77 N10       29.94S
MADISON        FAIR      50  50 100 N10       29.89S
MITCHELL       CLOUDY    53  45  74 N16       29.94R
SIOUX FALLS    MOCLDY    53  46  77 N18       29.87R
WINNER         CLOUDY    54  42  64 N12       29.99S
YANKTON        MOCLDY    52  47  83 NW12      29.89R
$$

MNZ071-072-080-081-089-090-097-098-240200-
SOUTHWEST MINNESOTA

CITY           SKY/WX    TMP DP  RH WIND       PRES   REMARKS
FAIRMONT       CLOUDY    53  47  79 N10       29.81R
JACKSON        MOCLDY    52  45  76 CALM      29.83S
LUVERNE        MOCLDY    52  43  71 N7        29.86R
MARSHALL       MOCLDY    53  46  77 NE10      29.86S
MONTEVIDEO     RAIN      57  48  72 E9G16     29.87R
PIPESTONE      CLEAR     54  45  71 N9G17     29.86R
REDWOOD FALLS  MOCLDY    58  44  60 N8        29.83S
TRACY          PTCLDY    55  47  74 N14       29.86R
WINDOM         PTCLDY    54  46  76 N7        29.83S
WORTHINGTON    LGT RAIN  50  47  89 N8        29.85R
$$

IAZ001>003-012>014-020>022-031-032-NEZ013-014-SDZ071-240200-
NORTHWEST IOWA

CITY           SKY/WX    TMP DP  RH WIND       PRES   REMARKS
CHEROKEE       MOCLDY    50  47  90 N6        29.82R
DENISON        PTCLDY    54  45  71 N10       29.82S
ESTHERVILLE    CLOUDY    52  49  89 N13       29.80S
LE MARS        MOCLDY    55  48  76 N10G18    29.84S
ORANGE CITY    PTCLDY    52  46  82 N9        29.84R
SHELDON        MOCLDY    52  48  87 NW10        N/A
SIOUX CITY     CLOUDY    53  50  89 N12       29.84S
SPENCER        CLOUDY    55  47  74 NE12      29.81S
STORM LAKE     LGT RAIN  50  46  87 N9        29.81R
$$

ABBREVIATIONS USED IN REMARKS
   TC - TEMPERATURE IN CELSIUS
  WCI - WIND CHILL INDEX
   HX - HEAT INDEX
  VSB - VISIBILITY




USA.gov is the U.S. government's official web portal to all federal, state and local government web resources and services.